Location: Newark
(25.4800°N, 85.7200°E)
Time: 04:03:50
(UTC+00:00)

Vanguard 1 Rocket - Pass Details

Date: 24 August 2019
Orbit: 652 x 4225 km, 34.3° (Epoch: 15 September)

Event Time Altitude Azimuth Distance (km) Brightness Sun altitude
Rises 00:44:52 0° 295° (WNW) 3,562 9.9 10.4°
Reaches altitude 10° 00:46:53 10° 295° (WNW) 2,839 9.5 10.9°
Maximum altitude 00:53:48 88° 27° (NNE) 1,530 8.8 12.4°
Drops below altitude 10° 01:07:42 10° 116° (ESE) 5,395 12.5 15.5°
Sets 01:13:09 0° 117° (ESE) 6,979 12.9 16.8°
